Regional Weather Roundup
Issued by NWS Upton, NY

Current Version | Previous Version | Graphics & Text | Print | Product List | Glossary Off
Versions: 1 2 3 4 5 6 7 8 9 10 11 12 13 14 15 16 17 18 19 20 21 22 23 24 25 26 27 28 29 30 31 32 33 34 35 36 37 38 39 40 41 42 43 44 45 46 47 48 49 50

438
ASUS41 KOKX 211209
RWROKX

REGIONAL WEATHER ROUNDUP
NATIONAL WEATHER SERVICE NEW YORK NY
800 AM EDT FRI JUL 21 2017

NOTE: "FAIR" INDICATES FEW OR NO CLOUDS BELOW 12,000 FEET WITH NO
SIGNIFICANT WEATHER AND/OR OBSTRUCTIONS TO VISIBILITY.

NYZ071-072-176-178-NJZ106-104-211300-
NEW YORK CITY METRO AREA

CITY           SKY/WX    TMP DP  RH WIND       PRES   REMARKS
Central Park   MOSUNNY   77  69  76 W5        29.94R
Bronx Bot Gard   N/A     79  68  69 NW1       29.93R
LaGuardia APRT MOSUNNY   80  71  74 NW6       29.90R
Kennedy INTL   MOSUNNY   83  70  64 NW8       29.91R
Breezy Point     N/A     75 N/A N/A W7          N/A
Newark/Liberty MOSUNNY   80  69  69 W7        29.91R
Teterboro      MOSUNNY   81  70  69 VRB6      29.90R
$$

NYZ177-179-078>081-211300-
LONG ISLAND NEW YORK

CITY           SKY/WX    TMP DP  RH WIND       PRES   REMARKS
Jones Beach      N/A     79 N/A N/A NW6         N/A
Matinecock PT    N/A     75 N/A N/A SW9         N/A
Farmingdale    MOSUNNY   80  68  66 W8        29.90R
MacArthur/ISP  PTSUNNY   80  69  69 NW8       29.89R
Shirley        SUNNY     81  70  69 W6        29.90R
Mt Sinai Harb    N/A    N/A N/A N/A NW1         N/A
Westhampton    SUNNY     79  67  66 NW8       29.91R
East Hampton   FAIR      77  69  75 NW6       29.89R
Montauk          N/A     76  68  76 VRB6      29.90R
$$

NYZ052-065-067-211300-
HUDSON VALLEY

CITY           SKY/WX    TMP DP  RH WIND       PRES   REMARKS
White Plains   MOSUNNY   79  68  69 W10       29.90S
Larchmont Harb   N/A     77 N/A N/A W10         N/A
Croton O-T Hud   N/A     77 N/A N/A W8          N/A
Newburgh       SUNNY     73  72  94 W12       29.95R
Montgomery     SUNNY     74  69  85 W7        29.94R
Poughkeepsie   SUNNY     73  69  87 SW5       29.91R
Albany         PTSUNNY   70  63  78 CALM      29.91R
$$

NJZ001-105-106-008-010-013-015-019>022-104-211300-
NEW JERSEY

CITY           SKY/WX    TMP DP  RH WIND       PRES   REMARKS
Newark/Liberty MOSUNNY   80  69  69 W7        29.91R
Teterboro      MOSUNNY   81  70  69 VRB6      29.90R
Caldwell       MOSUNNY   75  69  81 CALM      29.93R
Somerville     CLOUDY    75  71  87 CALM      29.92R FOG
Linden         FAIR      77  69  76 W6        29.92R
Perth Amboy      N/A     75 N/A N/A W6          N/A
Sussex         MOSUNNY   69  69 100 CALM      29.95R
Andover          N/A     72  70  93 CALM      29.95R
Trenton        CLOUDY    76  71  85 NW6       29.93R
Millville      SUNNY     82  77  84 N7        29.92R HX  90
Atlantic City  SUNNY     82  76  81 N6        29.92R
Wrightstown    MOSUNNY   77  71  80 N6        29.91R
Toms River     MOSUNNY   79  70  74 N5        29.94R
Belmar         MOSUNNY   78  71  79 NW6       29.94R
$$

PAZ047>061-062-071-211300-
EASTERN PENNSYLVANIA

CITY           SKY/WX    TMP DP  RH WIND       PRES   REMARKS
Philadelphia   PTSUNNY   82  69  64 N9        29.93R
Allentown      SUNNY     76  70  82 CALM      29.95R
Scranton       MOSUNNY   71  69  93 SW6       29.98R FOG
$$

CTZ002-004>006-009-010-012-RIZ004-006-007-MAZ004-011-015-211300-
SOUTHERN NEW ENGLAND
 IN CT

CITY           SKY/WX    TMP DP  RH WIND       PRES   REMARKS
Bradley INTL   MOSUNNY   74  67  78 W5        29.90R
Hartford       CLOUDY    75  69  81 VRB3      29.89R
Danbury        MOSUNNY   74  68  81 W5        29.92R
Wtrbury/Oxford PTSUNNY   72  64  78 CALM      29.93R
Bridgeport     CLOUDY    76  68  76 W3        29.89R
Meriden        CLOUDY    74  67  78 NW3       29.90R
New Haven      CLOUDY    75  67  76 W3        29.90R
Chester        FAIR      75  68  78 CALM      29.90S
Groton         PTSUNNY   76  67  73 W3        29.88R
Wilimantic     CLOUDY    73  69  87 CALM      29.89S

 IN RI

CITY           SKY/WX    TMP DP  RH WIND       PRES   REMARKS
Providence     MOSUNNY   78  67  68 NW6       29.88R
Block Island   MOSUNNY   75  68  78 W7        29.89R
Westerly       PTSUNNY   76  68  76 VRB5      29.89R
 IN MA

CITY           SKY/WX    TMP DP  RH WIND       PRES   REMARKS
Boston         MOSUNNY   77  60  55 W7        29.85S
Worcester      SUNNY     72  59  63 NW6       29.90S
Westfield      SUNNY     72  66  81 S3        29.90R
Provincetown   SUNNY     73  66  78 NW9       29.85R
Nantucket      SUNNY     79  68  69 NW12      29.85R
$$

ANZ330-335-338-340-345-350-353-355-211300-
COASTAL MARINE OBSERVATIONS


STATION/POSITION TIME  SKY/WX   TEMP    WIND        PRES    VSBY  WAVE
                                AIR SEA DIR/SP/G                  HT/PER
                 (UTC)          (F)     (DEG/KT/KT) (MB)    (MI)  (FT/S)
NY HARB ENTRANCE 1050            75 74  290/  4/  6 1011.9          2/ 7
20 S FIRE ISLAND 1150            75 75  290/  6/  8 1012.0          3/ 5
GREAT SOUTH BAY  1130            79 81  290/  8/  8   N/A
23 SSW MONTAUK P 1050            75 75              1011.8          4/ 5
15 E BARNEGAT LI 1130               78                N/A           3/ 6
HUDSON CANYON    1050            79 78  280/ 10/ 14 1011.7          4/ 6
KINGS POINT      1142            76 73  350/  6/  7 1012.4
EXECUTION ROCKS  1145            78     240/  6/  8   N/A
CENTRAL LI SOUND NOT AVBL
EASTERN LI SOUND NOT AVBL
ROBBINS REEF     1136                   290/  9/ 10 1013.2
$$


>>>>>>>>>>>>>>>>>>>>>>>>>>>> KEY <<<<<<<<<<<<<<<<<<<<<<<<<<<
>                                                          <
>     SKY/WX - Sky Condition/Present Weather               <
>     TMP    - Temperature in Fahrenheit                   <
>     DP     - Dew Point in Fahrenheit                     <
>     RH     - Relative Humidity in Percent                <
>     WIND   - Direction (from) and Speed in MPH           <
>     PRES   - Mean Sea Level Pressure (inches of Hg)      <
>     WCI    - Wind Chill Index                            <
>     VSB    - VISIBILITY IN MILES                         <
>     HX     - HEAT INDEX                                  <
>     TC     - TEMPERATURE IN CELSIUS                      <
>     VRB    - VARIABLE WIND DIRECTION                     <
>                                                          <
>>>>>>>>>>>>>>>>>>>>>>>>>>>> KEY <<<<<<<<<<<<<<<<<<<<<<<<<<<




USA.gov is the U.S. government's official web portal to all federal, state and local government web resources and services.